Location: Bothwell
(41.7170°N, 112.2589°W)
Time: 15:12:46
(UTC+00:00)

Vanguard 2 - Pass Details

Date: 10 May 2026
Orbit: 553 x 2894 km, 32.9° (Epoch: 8 June)

Event Time Altitude Azimuth Distance (km) Brightness Sun altitude
Rises 15:51:25 0° 275° (W) 5,898 11.6 38.7°
Reaches altitude 10° 15:56:20 10° 267° (W) 4,505 11.1 39.6°
Maximum altitude 16:05:57 32° 211° (SSW) 2,323 10.1 41.4°
Drops below altitude 10° 16:12:20 10° 151° (SSE) 2,928 11.1 42.5°
Sets 16:14:50 0° 141° (SE) 3,620 11.6 43.0°
